Year,Month,Day,Hour,Minute,Value (Times are PST for temperature in C)
2010,08,16,00,00,19.70
2010,08,16,00,01,19.70
2010,08,16,00,02,19.70
2010,08,16,00,03,19.70
2010,08,16,00,04,19.60
2010,08,16,00,05,19.60
2010,08,16,00,06,19.60
2010,08,16,00,07,19.60
2010,08,16,00,08,19.60
2010,08,16,00,09,19.60
2010,08,16,00,10,19.50
2010,08,16,00,11,19.50
2010,08,16,00,12,19.50
2010,08,16,00,13,19.40
2010,08,16,00,14,19.40
2010,08,16,00,15,19.40
2010,08,16,00,16,19.40
2010,08,16,00,17,19.30
2010,08,16,00,18,19.30
2010,08,16,00,19,19.30
2010,08,16,00,20,19.30
2010,08,16,00,21,19.30
2010,08,16,00,22,19.30
2010,08,16,00,23,19.20
2010,08,16,00,24,19.20
2010,08,16,00,25,19.20
2010,08,16,00,26,19.20
2010,08,16,00,27,19.20
2010,08,16,00,28,19.10
2010,08,16,00,29,19.10
2010,08,16,00,30,19.10
2010,08,16,00,31,19.10
2010,08,16,00,32,19.10
2010,08,16,00,33,19.10
2010,08,16,00,34,19.10
2010,08,16,00,35,19.00
2010,08,16,00,36,19.00
2010,08,16,00,37,19.00
2010,08,16,00,38,19.00
2010,08,16,00,39,19.00
2010,08,16,00,40,19.00
2010,08,16,00,41,19.00
2010,08,16,00,42,19.00
2010,08,16,00,43,19.00
2010,08,16,00,44,19.00
2010,08,16,00,45,19.00
2010,08,16,00,46,19.00
2010,08,16,00,47,19.00
2010,08,16,00,48,19.00
2010,08,16,00,49,18.90
2010,08,16,00,50,18.90
2010,08,16,00,51,18.90
2010,08,16,00,52,18.90
2010,08,16,00,53,18.90
2010,08,16,00,54,18.90
2010,08,16,00,55,18.90
2010,08,16,00,56,18.90
2010,08,16,00,57,18.90
2010,08,16,00,58,18.80
2010,08,16,00,59,18.80
2010,08,16,01,00,18.80
2010,08,16,01,01,18.80
2010,08,16,01,02,18.80
2010,08,16,01,03,18.80
2010,08,16,01,04,18.80
2010,08,16,01,05,18.80
2010,08,16,01,06,18.80
2010,08,16,01,07,18.80
2010,08,16,01,08,18.80
2010,08,16,01,09,18.80
2010,08,16,01,10,18.80
2010,08,16,01,11,18.80
2010,08,16,01,12,18.80
2010,08,16,01,13,18.80
2010,08,16,01,14,18.70
2010,08,16,01,15,18.70
2010,08,16,01,16,18.70
2010,08,16,01,17,18.70
2010,08,16,01,18,18.70
2010,08,16,01,19,18.70
2010,08,16,01,20,18.70
2010,08,16,01,21,18.70
2010,08,16,01,22,18.70
2010,08,16,01,23,18.70
2010,08,16,01,24,18.70
2010,08,16,01,25,18.70
2010,08,16,01,26,18.70
2010,08,16,01,27,18.70
2010,08,16,01,28,18.70
2010,08,16,01,29,18.70
2010,08,16,01,30,18.70
2010,08,16,01,31,18.70
2010,08,16,01,32,18.70
2010,08,16,01,33,18.70
2010,08,16,01,34,18.70
2010,08,16,01,35,18.60
2010,08,16,01,36,18.70
2010,08,16,01,37,18.60
2010,08,16,01,38,18.60
2010,08,16,01,39,18.60
2010,08,16,01,40,18.60
2010,08,16,01,41,18.60
2010,08,16,01,42,18.60
2010,08,16,01,43,18.60
2010,08,16,01,44,18.60
2010,08,16,01,45,18.60
2010,08,16,01,46,18.60
2010,08,16,01,47,18.60
2010,08,16,01,48,18.60
2010,08,16,01,49,18.60
2010,08,16,01,50,18.70
2010,08,16,01,51,18.60
2010,08,16,01,52,18.60
2010,08,16,01,53,18.60
2010,08,16,01,54,18.60
2010,08,16,01,55,18.60
2010,08,16,01,56,18.60
2010,08,16,01,57,18.60
2010,08,16,01,58,18.60
2010,08,16,01,59,18.60
2010,08,16,02,00,18.60
2010,08,16,02,01,18.60
2010,08,16,02,02,18.60
2010,08,16,02,03,18.60
2010,08,16,02,04,18.50
2010,08,16,02,05,18.50
2010,08,16,02,06,18.50
2010,08,16,02,07,18.50
2010,08,16,02,08,18.50
2010,08,16,02,09,18.50
2010,08,16,02,10,18.40
2010,08,16,02,11,18.40
2010,08,16,02,12,18.40
2010,08,16,02,13,18.40
2010,08,16,02,14,18.40
2010,08,16,02,15,18.30
2010,08,16,02,16,18.30
2010,08,16,02,17,18.30
2010,08,16,02,18,18.30
2010,08,16,02,19,18.30
2010,08,16,02,20,18.20
2010,08,16,02,21,18.20
2010,08,16,02,22,18.20
2010,08,16,02,23,18.20
2010,08,16,02,24,18.10
2010,08,16,02,25,18.10
2010,08,16,02,26,18.10
2010,08,16,02,27,18.10
2010,08,16,02,28,18.00
2010,08,16,02,29,18.00
2010,08,16,02,30,18.00
2010,08,16,02,31,17.90
2010,08,16,02,32,17.90
2010,08,16,02,33,17.90
2010,08,16,02,34,17.90
2010,08,16,02,35,17.90
2010,08,16,02,36,17.80
2010,08,16,02,37,17.80
2010,08,16,02,38,17.80
2010,08,16,02,39,17.80
2010,08,16,02,40,17.80
2010,08,16,02,41,17.70
2010,08,16,02,42,17.70
2010,08,16,02,43,17.70
2010,08,16,02,44,17.70
2010,08,16,02,45,17.70
2010,08,16,02,46,17.70
2010,08,16,02,47,17.70
2010,08,16,02,48,17.70
2010,08,16,02,49,17.70
2010,08,16,02,50,17.70
2010,08,16,02,51,17.60
2010,08,16,02,52,17.60
2010,08,16,02,53,17.70
2010,08,16,02,54,17.70
2010,08,16,02,55,17.70
2010,08,16,02,56,17.70
2010,08,16,02,57,17.70
2010,08,16,02,58,17.70
2010,08,16,02,59,17.70
2010,08,16,03,00,17.70
2010,08,16,03,01,17.70
2010,08,16,03,02,17.80
2010,08,16,03,06,17.80
2010,08,16,03,07,17.80
2010,08,16,03,08,17.80
2010,08,16,03,09,17.80
2010,08,16,03,10,17.80
2010,08,16,03,11,17.80
2010,08,16,03,12,17.80
2010,08,16,03,13,17.80
2010,08,16,03,14,17.80
2010,08,16,03,15,17.80
2010,08,16,03,16,17.80
2010,08,16,03,17,17.80
2010,08,16,03,18,17.80
2010,08,16,03,19,17.80
2010,08,16,03,20,17.80
2010,08,16,03,21,17.70
2010,08,16,03,22,17.70
2010,08,16,03,23,17.70
2010,08,16,03,24,17.70
2010,08,16,03,25,17.70
2010,08,16,03,26,17.60
2010,08,16,03,27,17.60
2010,08,16,03,28,17.60
2010,08,16,03,29,17.60
2010,08,16,03,30,17.50
2010,08,16,03,31,17.50
2010,08,16,03,32,17.40
2010,08,16,03,33,17.40
2010,08,16,03,34,17.40
2010,08,16,03,35,17.30
2010,08,16,03,36,17.30
2010,08,16,03,37,17.30
2010,08,16,03,38,17.30
2010,08,16,03,39,17.20
2010,08,16,03,40,17.20
2010,08,16,03,41,17.20
2010,08,16,03,42,17.20
2010,08,16,03,43,17.20
2010,08,16,03,44,17.10
2010,08,16,03,45,17.10
2010,08,16,03,46,17.10
2010,08,16,03,47,17.10
2010,08,16,03,48,17.10
2010,08,16,03,49,17.10
2010,08,16,03,50,17.10
2010,08,16,03,51,17.10
2010,08,16,03,52,17.00
2010,08,16,03,53,17.00
2010,08,16,03,54,17.00
2010,08,16,03,55,17.00
2010,08,16,03,56,17.00
2010,08,16,03,57,16.90
2010,08,16,03,58,16.90
2010,08,16,03,59,16.90
2010,08,16,04,00,16.90
2010,08,16,04,01,16.90
2010,08,16,04,02,16.90
2010,08,16,04,03,16.90
2010,08,16,04,04,16.90
2010,08,16,04,05,16.90
2010,08,16,04,06,16.90
2010,08,16,04,07,16.90
2010,08,16,04,08,16.90
2010,08,16,04,09,16.90
2010,08,16,04,10,16.90
2010,08,16,04,11,16.90
2010,08,16,04,12,16.90
2010,08,16,04,13,16.90
2010,08,16,04,14,16.80
2010,08,16,04,15,16.80
2010,08,16,04,16,16.80
2010,08,16,04,17,16.80
2010,08,16,04,18,16.80
2010,08,16,04,19,16.80
2010,08,16,04,20,16.70
2010,08,16,04,21,16.70
2010,08,16,04,22,16.70
2010,08,16,04,23,16.70
2010,08,16,04,24,16.70
2010,08,16,04,25,16.60
2010,08,16,04,26,16.60
2010,08,16,04,27,16.60
2010,08,16,04,28,16.60
2010,08,16,04,29,16.60
2010,08,16,04,30,16.60
2010,08,16,04,31,16.60
2010,08,16,04,32,16.50
2010,08,16,04,33,16.50
2010,08,16,04,34,16.50
2010,08,16,04,35,16.50
2010,08,16,04,36,16.40
2010,08,16,04,37,16.40
2010,08,16,04,38,16.40
2010,08,16,04,39,16.40
2010,08,16,04,40,16.40
2010,08,16,04,41,16.40
2010,08,16,04,42,16.40
2010,08,16,04,43,16.40
2010,08,16,04,44,16.40
2010,08,16,04,45,16.30
2010,08,16,04,46,16.30
2010,08,16,04,47,16.30
2010,08,16,04,48,16.30
2010,08,16,04,49,16.30
2010,08,16,04,50,16.30
2010,08,16,04,51,16.30
2010,08,16,04,52,16.20
2010,08,16,04,53,16.20
2010,08,16,04,54,16.20
2010,08,16,04,55,16.20
2010,08,16,04,56,16.20
2010,08,16,04,57,16.20
2010,08,16,04,58,16.20
2010,08,16,04,59,16.20
2010,08,16,05,00,16.20
2010,08,16,05,01,16.20
2010,08,16,05,02,16.20
2010,08,16,05,03,16.20
2010,08,16,05,04,16.20
2010,08,16,05,05,16.20
2010,08,16,05,06,16.20
2010,08,16,05,07,16.20
2010,08,16,05,08,16.20
2010,08,16,05,09,16.20
2010,08,16,05,10,16.20
2010,08,16,05,11,16.20
2010,08,16,05,12,16.10
2010,08,16,05,13,16.10
2010,08,16,05,14,16.10
2010,08,16,05,15,16.10
2010,08,16,05,16,16.10
2010,08,16,05,17,16.10
2010,08,16,05,18,16.10
2010,08,16,05,19,16.10
2010,08,16,05,20,16.10
2010,08,16,05,21,16.10
2010,08,16,05,22,16.10
2010,08,16,05,23,16.00
2010,08,16,05,24,16.00
2010,08,16,05,25,16.00
2010,08,16,05,26,16.00
2010,08,16,05,27,15.90
2010,08,16,05,28,15.90
2010,08,16,05,29,15.90
2010,08,16,05,30,15.90
2010,08,16,05,31,15.90
2010,08,16,05,32,15.90
2010,08,16,05,33,15.90
2010,08,16,05,34,15.90
2010,08,16,05,35,15.90
2010,08,16,05,36,15.90
2010,08,16,05,37,15.80
2010,08,16,05,38,15.80
2010,08,16,05,39,15.80
2010,08,16,05,40,15.80
2010,08,16,05,41,15.80
2010,08,16,05,42,15.80
2010,08,16,05,43,15.80
2010,08,16,05,44,15.80
2010,08,16,05,45,15.80
2010,08,16,05,46,15.80
2010,08,16,05,47,15.80
2010,08,16,05,48,15.80
2010,08,16,05,49,15.80
2010,08,16,05,50,15.80
2010,08,16,05,51,15.80
2010,08,16,05,52,15.80
2010,08,16,05,53,15.80
2010,08,16,05,54,15.80
2010,08,16,05,55,15.80
2010,08,16,05,56,15.70
2010,08,16,05,57,15.70
2010,08,16,05,58,15.70
2010,08,16,05,59,15.70
2010,08,16,06,00,15.70
2010,08,16,06,01,15.70
2010,08,16,06,02,15.70
2010,08,16,06,03,15.70
2010,08,16,06,04,15.70
2010,08,16,06,05,15.70
2010,08,16,06,06,15.60
2010,08,16,06,07,15.60
2010,08,16,06,08,15.60
2010,08,16,06,09,15.60
2010,08,16,06,10,15.60
2010,08,16,06,11,15.60
2010,08,16,06,12,15.60
2010,08,16,06,13,15.60
2010,08,16,06,14,15.60
2010,08,16,06,15,15.60
2010,08,16,06,16,15.60
2010,08,16,06,17,15.60
2010,08,16,06,18,15.60
2010,08,16,06,19,15.60
2010,08,16,06,20,15.60
2010,08,16,06,21,15.60
2010,08,16,06,22,15.60
2010,08,16,06,23,15.60
2010,08,16,06,24,15.60
2010,08,16,06,25,15.60
2010,08,16,06,26,15.70
2010,08,16,06,27,15.70
2010,08,16,06,28,15.70
2010,08,16,06,29,15.70
2010,08,16,06,30,15.70
2010,08,16,06,31,15.70
2010,08,16,06,32,15.70
2010,08,16,06,33,15.70
2010,08,16,06,34,15.70
2010,08,16,06,35,15.70
2010,08,16,06,36,15.70
2010,08,16,06,37,15.70
2010,08,16,06,38,15.70
2010,08,16,06,39,15.70
2010,08,16,06,40,15.70
2010,08,16,06,41,15.70
2010,08,16,06,42,15.70
2010,08,16,06,43,15.70
2010,08,16,06,44,15.70
2010,08,16,06,45,15.70
2010,08,16,06,46,15.70
2010,08,16,06,47,15.70
2010,08,16,06,48,15.70
2010,08,16,06,49,15.70
2010,08,16,06,50,15.70
2010,08,16,06,51,15.70
2010,08,16,06,52,15.70
2010,08,16,06,53,15.70
2010,08,16,06,54,15.80
2010,08,16,06,55,15.80
2010,08,16,06,56,15.80
2010,08,16,06,57,15.80
2010,08,16,06,58,15.80
2010,08,16,06,59,15.80
2010,08,16,07,00,15.80
2010,08,16,07,01,15.80
2010,08,16,07,02,15.80
2010,08,16,07,03,15.80
2010,08,16,07,04,15.80
2010,08,16,07,05,15.90
2010,08,16,07,06,15.90
2010,08,16,07,07,15.90
2010,08,16,07,08,15.90
2010,08,16,07,09,15.90
2010,08,16,07,10,16.00
2010,08,16,07,11,16.00
2010,08,16,07,12,16.10
2010,08,16,07,13,16.10
2010,08,16,07,14,16.10
2010,08,16,07,15,16.20
2010,08,16,07,16,16.20
2010,08,16,07,17,16.20
2010,08,16,07,18,16.20
2010,08,16,07,19,16.30
2010,08,16,07,20,16.30
2010,08,16,07,21,16.30
2010,08,16,07,22,16.30
2010,08,16,07,23,16.30
2010,08,16,07,24,16.40
2010,08,16,07,25,16.40
2010,08,16,07,26,16.40
2010,08,16,07,27,16.40
2010,08,16,07,28,16.40
2010,08,16,07,29,16.50
2010,08,16,07,30,16.50
2010,08,16,07,31,16.50
2010,08,16,07,32,16.60
2010,08,16,07,33,16.60
2010,08,16,07,34,16.60
2010,08,16,07,35,16.60
2010,08,16,07,36,16.60
2010,08,16,07,37,16.70
2010,08,16,07,38,16.70
2010,08,16,07,39,16.70
2010,08,16,07,40,16.70
2010,08,16,07,41,16.80
2010,08,16,07,42,16.80
2010,08,16,07,43,16.80
2010,08,16,07,44,16.80
2010,08,16,07,45,16.80
2010,08,16,07,46,16.80
2010,08,16,07,47,16.80
2010,08,16,07,48,16.90
2010,08,16,07,49,16.90
2010,08,16,07,50,16.90
2010,08,16,07,51,16.90
2010,08,16,07,52,17.00
2010,08,16,07,53,17.00
2010,08,16,07,54,17.10
2010,08,16,07,55,17.10
2010,08,16,07,56,17.10
2010,08,16,07,57,17.20
2010,08,16,07,58,17.20
2010,08,16,07,59,17.30
2010,08,16,08,00,17.30
2010,08,16,08,01,17.40
2010,08,16,08,02,17.50
2010,08,16,08,03,17.60
2010,08,16,08,04,17.60
2010,08,16,08,05,17.70
2010,08,16,08,06,17.80
2010,08,16,08,07,17.90
2010,08,16,08,08,18.00
2010,08,16,08,09,18.10
2010,08,16,08,10,18.20
2010,08,16,08,11,18.30
2010,08,16,08,12,18.40
2010,08,16,08,13,18.50
2010,08,16,08,14,18.60
2010,08,16,08,15,18.70
2010,08,16,08,16,18.80
2010,08,16,08,17,18.90
2010,08,16,08,18,19.10
2010,08,16,08,19,19.20
2010,08,16,08,20,19.30
2010,08,16,08,21,19.50
2010,08,16,08,22,19.60
2010,08,16,08,23,19.70
2010,08,16,08,24,19.70
2010,08,16,08,25,19.80
2010,08,16,08,26,19.90
2010,08,16,08,27,20.00
2010,08,16,08,28,20.10
2010,08,16,08,29,20.20
2010,08,16,08,30,20.30
2010,08,16,08,31,20.30
2010,08,16,08,32,20.40
2010,08,16,08,33,20.40
2010,08,16,08,34,20.50
2010,08,16,08,35,20.60
2010,08,16,08,36,20.70
2010,08,16,08,37,20.70
2010,08,16,08,38,20.80
2010,08,16,08,39,20.80
2010,08,16,08,40,20.90
2010,08,16,08,41,20.90
2010,08,16,08,42,21.00
2010,08,16,08,43,21.10
2010,08,16,08,44,21.10
2010,08,16,08,45,21.20
2010,08,16,08,46,21.30
2010,08,16,08,47,21.40
2010,08,16,08,48,21.50
2010,08,16,08,49,21.60
2010,08,16,08,50,21.70
2010,08,16,08,51,21.80
2010,08,16,08,52,21.90
2010,08,16,08,53,22.10
2010,08,16,08,54,22.20
2010,08,16,08,55,22.30
2010,08,16,08,56,22.50
2010,08,16,08,57,22.60
2010,08,16,08,58,22.70
2010,08,16,08,59,22.80
2010,08,16,09,00,22.90
2010,08,16,09,01,23.00
2010,08,16,09,02,23.10
2010,08,16,09,03,23.20
2010,08,16,09,04,23.20
2010,08,16,09,05,23.20
2010,08,16,09,06,23.20
2010,08,16,09,07,23.20
2010,08,16,09,08,23.20
2010,08,16,09,09,23.20
2010,08,16,09,10,23.30
2010,08,16,09,11,23.30
2010,08,16,09,12,23.40
2010,08,16,09,13,23.40
2010,08,16,09,14,23.40
2010,08,16,09,15,23.40
2010,08,16,09,16,23.40
2010,08,16,09,17,23.50
2010,08,16,09,18,23.50
2010,08,16,09,19,23.60
2010,08,16,09,20,23.60
2010,08,16,09,21,23.70
2010,08,16,09,22,23.80
2010,08,16,09,23,23.80
2010,08,16,09,24,24.00
2010,08,16,09,25,24.10
2010,08,16,09,26,24.20
2010,08,16,09,27,24.30
2010,08,16,09,28,24.40
2010,08,16,09,29,24.50
2010,08,16,09,30,24.60
2010,08,16,09,31,24.70
2010,08,16,09,32,24.70
2010,08,16,09,33,24.80
2010,08,16,09,34,24.90
2010,08,16,09,35,25.00
2010,08,16,09,36,25.10
2010,08,16,09,37,25.20
2010,08,16,09,38,25.20
2010,08,16,09,39,25.30
2010,08,16,09,40,25.30
2010,08,16,09,41,25.40
2010,08,16,09,42,25.50
2010,08,16,09,43,25.60
2010,08,16,09,44,25.60
2010,08,16,09,45,25.60
2010,08,16,09,46,25.70
2010,08,16,09,47,25.70
2010,08,16,09,48,25.80
2010,08,16,09,49,25.80
2010,08,16,09,50,25.80
2010,08,16,09,51,25.90
2010,08,16,09,52,25.90
2010,08,16,09,53,25.90
2010,08,16,09,54,25.90
2010,08,16,09,55,26.00
2010,08,16,09,56,26.00
2010,08,16,09,57,26.10
2010,08,16,09,58,26.10
2010,08,16,09,59,26.10
2010,08,16,10,00,26.10
2010,08,16,10,01,26.10
2010,08,16,10,02,26.10
2010,08,16,10,03,26.20
2010,08,16,10,04,26.20
2010,08,16,10,05,26.20
2010,08,16,10,06,26.20
2010,08,16,10,07,26.30
2010,08,16,10,08,26.40
2010,08,16,10,09,26.40
2010,08,16,10,10,26.40
2010,08,16,10,11,26.40
2010,08,16,10,12,26.40
2010,08,16,10,13,26.40
2010,08,16,10,14,26.50
2010,08,16,10,15,26.50
2010,08,16,10,16,26.60
2010,08,16,10,17,26.60
2010,08,16,10,18,26.70
2010,08,16,10,19,26.80
2010,08,16,10,20,26.80
2010,08,16,10,21,26.90
2010,08,16,10,22,26.90
2010,08,16,10,23,26.90
2010,08,16,10,24,27.00
2010,08,16,10,25,27.00
2010,08,16,10,26,27.10
2010,08,16,10,27,27.20
2010,08,16,10,28,27.20
2010,08,16,10,29,27.30
2010,08,16,10,30,27.30
2010,08,16,10,31,27.40
2010,08,16,10,32,27.40
2010,08,16,10,33,27.50
2010,08,16,10,34,27.50
2010,08,16,10,35,27.50
2010,08,16,10,36,27.60
2010,08,16,10,37,27.60
2010,08,16,10,38,27.70
2010,08,16,10,39,27.70
2010,08,16,10,40,27.70
2010,08,16,10,41,27.80
2010,08,16,10,42,27.80
2010,08,16,10,43,27.70
2010,08,16,10,44,27.70
2010,08,16,10,45,27.80
2010,08,16,10,46,27.80
2010,08,16,10,47,27.80
2010,08,16,10,48,27.90
2010,08,16,10,49,28.00
2010,08,16,10,50,28.00
2010,08,16,10,51,28.10
2010,08,16,10,52,28.10
2010,08,16,10,53,28.20
2010,08,16,10,54,28.20
2010,08,16,10,55,28.20
2010,08,16,10,56,28.30
2010,08,16,10,57,28.30
2010,08,16,10,58,28.30
2010,08,16,10,59,28.30
2010,08,16,11,00,28.30
2010,08,16,11,01,28.20
2010,08,16,11,02,28.20
2010,08,16,11,03,28.10
2010,08,16,11,04,28.10
2010,08,16,11,05,28.00
2010,08,16,11,06,27.90
2010,08,16,11,07,27.90
2010,08,16,11,08,27.90
2010,08,16,11,09,27.90
2010,08,16,11,10,27.90
2010,08,16,11,11,28.00
2010,08,16,11,12,28.10
2010,08,16,11,13,28.10
2010,08,16,11,14,28.10
2010,08,16,11,15,28.10
2010,08,16,11,16,28.20
2010,08,16,11,17,28.20
2010,08,16,11,18,28.20
2010,08,16,11,19,28.20
2010,08,16,11,20,28.20
2010,08,16,11,21,28.30
2010,08,16,11,22,28.40
2010,08,16,11,23,28.50
2010,08,16,11,24,28.50
2010,08,16,11,25,28.60
2010,08,16,11,26,28.70
2010,08,16,11,27,28.80
2010,08,16,11,28,28.90
2010,08,16,11,29,28.90
2010,08,16,11,30,29.00
2010,08,16,11,31,29.20
2010,08,16,11,32,29.20
2010,08,16,11,33,29.30
2010,08,16,11,34,29.30
2010,08,16,11,35,29.40
2010,08,16,11,36,29.40
2010,08,16,11,37,29.30
2010,08,16,11,38,29.30
2010,08,16,11,39,29.30
2010,08,16,11,40,29.30
2010,08,16,11,41,29.30
2010,08,16,11,42,29.30
2010,08,16,11,43,29.40
2010,08,16,11,44,29.40
2010,08,16,11,45,29.50
2010,08,16,11,46,29.50
2010,08,16,11,47,29.60
2010,08,16,11,48,29.60
2010,08,16,11,49,29.60
2010,08,16,11,50,29.60
2010,08,16,11,51,29.60
2010,08,16,11,52,29.60
2010,08,16,11,53,29.70
2010,08,16,11,54,29.70
2010,08,16,11,55,29.70
2010,08,16,11,56,29.70
2010,08,16,11,57,29.80
2010,08,16,11,58,29.80
2010,08,16,11,59,29.80
2010,08,16,12,00,29.90
2010,08,16,12,01,29.90
2010,08,16,12,02,29.90
2010,08,16,12,03,30.00
2010,08,16,12,04,30.10
2010,08,16,12,05,30.10
2010,08,16,12,06,30.20
2010,08,16,12,07,30.20
2010,08,16,12,08,30.20
2010,08,16,12,09,30.20
2010,08,16,12,10,30.20
2010,08,16,12,11,30.20
2010,08,16,12,12,30.20
2010,08,16,12,13,30.20
2010,08,16,12,14,30.10
2010,08,16,12,15,30.20
2010,08,16,12,16,30.10
2010,08,16,12,17,30.20
2010,08,16,12,18,30.10
2010,08,16,12,19,30.10
2010,08,16,12,20,30.20
2010,08,16,12,21,30.20
2010,08,16,12,22,30.20
2010,08,16,12,23,30.10
2010,08,16,12,24,30.10
2010,08,16,12,25,30.00
2010,08,16,12,26,29.90
2010,08,16,12,27,29.90
2010,08,16,12,28,29.90
2010,08,16,12,29,29.90
2010,08,16,12,30,30.00
2010,08,16,12,31,30.10
2010,08,16,12,32,30.10
2010,08,16,12,33,30.20
2010,08,16,12,34,30.20
2010,08,16,12,35,30.20
2010,08,16,12,36,30.30
2010,08,16,12,37,30.30
2010,08,16,12,38,30.40
2010,08,16,12,39,30.40
2010,08,16,12,40,30.40
2010,08,16,12,41,30.40
2010,08,16,12,42,30.40
2010,08,16,12,43,30.40
2010,08,16,12,44,30.40
2010,08,16,12,45,30.30
2010,08,16,12,46,30.30
2010,08,16,12,47,30.30
2010,08,16,12,48,30.40
2010,08,16,12,49,30.40
2010,08,16,12,50,30.50
2010,08,16,12,51,30.60
2010,08,16,12,52,30.70
2010,08,16,12,53,30.90
2010,08,16,12,54,30.90
2010,08,16,12,55,31.00
2010,08,16,12,56,31.00
2010,08,16,12,57,31.00
2010,08,16,12,58,31.00
2010,08,16,12,59,30.90
2010,08,16,13,00,30.90
2010,08,16,13,01,30.80
2010,08,16,13,02,30.70
2010,08,16,13,03,30.70
2010,08,16,13,04,30.60
2010,08,16,13,05,30.60
2010,08,16,13,06,30.60
2010,08,16,13,07,30.60
2010,08,16,13,08,30.60
2010,08,16,13,09,30.50
2010,08,16,13,10,30.40
2010,08,16,13,11,30.40
2010,08,16,13,12,30.30
2010,08,16,13,13,30.30
2010,08,16,13,14,30.30
2010,08,16,13,15,30.30
2010,08,16,13,16,30.30
2010,08,16,13,17,30.20
2010,08,16,13,18,30.20
2010,08,16,13,19,30.20
2010,08,16,13,20,30.20
2010,08,16,13,21,30.20
2010,08,16,13,22,30.30
2010,08,16,13,23,30.30
2010,08,16,13,24,30.20
2010,08,16,13,25,30.20
2010,08,16,13,26,30.30
2010,08,16,13,27,30.30
2010,08,16,13,28,30.40
2010,08,16,13,29,30.40
2010,08,16,13,30,30.40
2010,08,16,13,31,30.30
2010,08,16,13,32,30.40
2010,08,16,13,33,30.40
2010,08,16,13,34,30.50
2010,08,16,13,35,30.50
2010,08,16,13,36,30.40
2010,08,16,13,37,30.50
2010,08,16,13,38,30.50
2010,08,16,13,39,30.40
2010,08,16,13,40,30.40
2010,08,16,13,41,30.40
2010,08,16,13,42,30.50
2010,08,16,13,43,30.50
2010,08,16,13,44,30.50
2010,08,16,13,45,30.40
2010,08,16,13,46,30.40
2010,08,16,13,47,30.40
2010,08,16,13,48,30.40
2010,08,16,13,49,30.40
2010,08,16,13,50,30.50
2010,08,16,13,51,30.60
2010,08,16,13,52,30.60
2010,08,16,13,53,30.60
2010,08,16,13,54,30.70
2010,08,16,13,55,30.80
2010,08,16,13,56,30.80
2010,08,16,13,57,31.00
2010,08,16,13,58,31.00
2010,08,16,13,59,31.10
2010,08,16,14,00,31.10
2010,08,16,14,01,31.20
2010,08,16,14,02,31.10
2010,08,16,14,03,31.10
2010,08,16,14,04,31.00
2010,08,16,14,05,31.00
2010,08,16,14,06,30.90
2010,08,16,14,07,30.90
2010,08,16,14,08,30.80
2010,08,16,14,09,30.80
2010,08,16,14,10,30.80
2010,08,16,14,11,30.80
2010,08,16,14,12,30.80
2010,08,16,14,13,30.70
2010,08,16,14,14,30.70
2010,08,16,14,15,30.70
2010,08,16,14,16,30.70
2010,08,16,14,17,30.70
2010,08,16,14,18,30.80
2010,08,16,14,19,30.80
2010,08,16,14,20,30.70
2010,08,16,14,21,30.70
2010,08,16,14,22,30.80
2010,08,16,14,23,30.80
2010,08,16,14,24,30.90
2010,08,16,14,25,30.90
2010,08,16,14,26,30.90
2010,08,16,14,27,31.00
2010,08,16,14,28,31.00
2010,08,16,14,29,30.90
2010,08,16,14,30,30.90
2010,08,16,14,31,30.80
2010,08,16,14,32,30.80
2010,08,16,14,33,30.80
2010,08,16,14,34,30.80
2010,08,16,14,35,30.70
2010,08,16,14,36,30.70
2010,08,16,14,37,30.70
2010,08,16,14,38,30.70
2010,08,16,14,39,30.70
2010,08,16,14,40,30.70
2010,08,16,14,41,30.70
2010,08,16,14,42,30.80
2010,08,16,14,43,30.80
2010,08,16,14,44,30.70
2010,08,16,14,45,30.60
2010,08,16,14,46,30.60
2010,08,16,14,47,30.60
2010,08,16,14,48,30.60
2010,08,16,14,49,30.60
2010,08,16,14,50,30.60
2010,08,16,14,51,30.60
2010,08,16,14,52,30.60
2010,08,16,14,53,30.60
2010,08,16,14,54,30.60
2010,08,16,14,55,30.50
2010,08,16,14,56,30.60
2010,08,16,14,57,30.60
2010,08,16,14,58,30.60
2010,08,16,14,59,30.60
2010,08,16,15,00,30.60
2010,08,16,15,01,30.60
2010,08,16,15,02,30.60
2010,08,16,15,03,30.60
2010,08,16,15,04,30.60
2010,08,16,15,05,30.70
2010,08,16,15,06,30.70
2010,08,16,15,07,30.80
2010,08,16,15,08,30.90
2010,08,16,15,09,31.00
2010,08,16,15,10,31.00
2010,08,16,15,11,31.10
2010,08,16,15,12,31.10
2010,08,16,15,13,31.20
2010,08,16,15,14,31.20
2010,08,16,15,15,31.20
2010,08,16,15,16,31.10
2010,08,16,15,17,31.00
2010,08,16,15,18,31.00
2010,08,16,15,19,31.00
2010,08,16,15,20,31.00
2010,08,16,15,21,30.90
2010,08,16,15,22,30.90
2010,08,16,15,23,30.80
2010,08,16,15,24,30.70
2010,08,16,15,25,30.60
2010,08,16,15,26,30.60
2010,08,16,15,27,30.60
2010,08,16,15,28,30.60
2010,08,16,15,29,30.60
2010,08,16,15,30,30.60
2010,08,16,15,31,30.50
2010,08,16,15,32,30.40
2010,08,16,15,33,30.40
2010,08,16,15,34,30.40
2010,08,16,15,35,30.30
2010,08,16,15,36,30.30
2010,08,16,15,37,30.30
2010,08,16,15,38,30.30
2010,08,16,15,39,30.30
2010,08,16,15,40,30.30
2010,08,16,15,41,30.30
2010,08,16,15,42,30.30
2010,08,16,15,43,30.40
2010,08,16,15,44,30.40
2010,08,16,15,45,30.40
2010,08,16,15,46,30.50
2010,08,16,15,47,30.40
2010,08,16,15,48,30.50
2010,08,16,15,49,30.50
2010,08,16,15,50,30.60
2010,08,16,15,51,30.60
2010,08,16,15,52,30.60
2010,08,16,15,53,30.50
2010,08,16,15,54,30.40
2010,08,16,15,55,30.30
2010,08,16,15,56,30.20
2010,08,16,15,57,30.20
2010,08,16,15,58,30.10
2010,08,16,15,59,30.10
2010,08,16,16,00,30.10
2010,08,16,16,01,30.20
2010,08,16,16,02,30.20
2010,08,16,16,03,30.20
2010,08,16,16,04,30.20
2010,08,16,16,05,30.30
2010,08,16,16,06,30.30
2010,08,16,16,07,30.30
2010,08,16,16,08,30.30
2010,08,16,16,09,30.20
2010,08,16,16,10,30.20
2010,08,16,16,11,30.20
2010,08,16,16,12,30.20
2010,08,16,16,13,30.20
2010,08,16,16,14,30.10
2010,08,16,16,15,30.10
2010,08,16,16,16,30.10
2010,08,16,16,17,30.20
2010,08,16,16,18,30.20
2010,08,16,16,19,30.20
2010,08,16,16,20,30.20
2010,08,16,16,21,30.20
2010,08,16,16,22,30.20
2010,08,16,16,23,30.20
2010,08,16,16,24,30.20
2010,08,16,16,25,30.20
2010,08,16,16,26,30.20
2010,08,16,16,27,30.30
2010,08,16,16,28,30.20
2010,08,16,16,29,30.20
2010,08,16,16,30,30.20
2010,08,16,16,31,30.20
2010,08,16,16,32,30.20
2010,08,16,16,33,30.20
2010,08,16,16,34,30.20
2010,08,16,16,35,30.30
2010,08,16,16,36,30.20
2010,08,16,16,37,30.30
2010,08,16,16,38,30.30
2010,08,16,16,39,30.20
2010,08,16,16,40,30.20
2010,08,16,16,41,30.10
2010,08,16,16,42,30.10
2010,08,16,16,43,30.00
2010,08,16,16,44,29.90
2010,08,16,16,45,29.90
2010,08,16,16,46,29.90
2010,08,16,16,47,29.90
2010,08,16,16,48,29.90
2010,08,16,16,49,29.90
2010,08,16,16,50,30.00
2010,08,16,16,51,30.10
2010,08,16,16,52,30.10
2010,08,16,16,53,30.10
2010,08,16,16,54,30.10
2010,08,16,16,55,30.20
2010,08,16,16,56,30.20
2010,08,16,16,57,30.20
2010,08,16,16,58,30.20
2010,08,16,16,59,30.20
2010,08,16,17,00,30.20
2010,08,16,17,01,30.20
2010,08,16,17,02,30.20
2010,08,16,17,03,30.20
2010,08,16,17,04,30.10
2010,08,16,17,05,30.10
2010,08,16,17,06,30.10
2010,08,16,17,07,30.20
2010,08,16,17,08,30.20
2010,08,16,17,09,30.10
2010,08,16,17,10,30.10
2010,08,16,17,11,30.10
2010,08,16,17,12,30.10
2010,08,16,17,13,30.10
2010,08,16,17,14,30.10
2010,08,16,17,15,30.20
2010,08,16,17,16,30.20
2010,08,16,17,17,30.20
2010,08,16,17,18,30.20
2010,08,16,17,19,30.20
2010,08,16,17,20,30.30
2010,08,16,17,21,30.30
2010,08,16,17,22,30.30